TITAN 3C TRANSTAGE DEB, 59980

Orbit data source: Space-Track

TITAN 3C TRANSTAGE DEB, 59980 is space debris in GEO originally from a launch on Thu, 26 Sep 1968 UTC launched from the Air Force Eastern Test Range (AFETR). Debris objects in space refer to the collection of defunct objects orbiting the Earth. Examples of debris include non-operational satellites, rocket bodies, and fragments generated from explosions, collisions, or faulty payload assembly.

Not visible in the next 10 days
Identifier
59980, 1968-081AN
Orbit
GEO
Country
Flag of USUS
Related business
Manufacturer
Unknown
Mission
Spacecraft
Bus & Motor
Unknown
Mass
Unknown
Launch date (UTC)
1968-09-26 (57 years ago)
Launch vehicle
Unknown
Launch site
Air Force Eastern Test Range (AFETR)
Object type
Payload
Rocket body
Debris
Shape & HBR
Unknown
Radar Cross Section
RCS unknown

Expand to show TLE details & history
Last TLE update: 2 days ago

TLE from 2 days ago
0 TITAN 3C TRANSTAGE DEB
1 59980U 68081AN  25257.74402913 -.00000016  00000-0  00000-0 0  9993
2 59980   1.2523  46.7797 0027347 287.0064  73.4480  1.02249902 40702
Epoch: 2025-09-14T17:51Z
TLE epoch observation values (Epoch: 2025-09-14T17:51:24.116Z)
Latitude
0.00001°
Longitude
145.721°
Altitude
35,208.015 km
Speed
3.097 km/s
True Right ascension
03h 10m 07s
True Declination
0° 00' 00"
Sunlit
Object was in daylight at epoch
Visualization orbit readout
Latitude
Unknown
Longitude
Unknown
Altitude
Unknown
Speed
Unknown
Apparent Right ascension
Unknown
Apparent Declination
Unknown
Sunlit
N/A
Visualization observer readout
Local Sidereal Time
12:25:20
Azimuth
Unknown
Elevation
Unknown
Doppler factor
Unknown
Orbital elements
Apogee altitude
35,355.918 km
Perigee altitude
35,128.28 km
Semi-major axis
41,620.236 km
Eccentricity
0.00273
Inclination
1.2523°
RAAN
46.7797°
Arg. of periapsis
287.0064°
True anomaly
73.74868°
Mean anomaly
73.448°
Eccentric anomaly
73.59831°
Mean motion
0.25562 °/min
Orbital period
1,408.37 mins
BSTAR
0
Loading maneuver chart data...
Computing Atmospheric mass density...

Documentation

Showing up to 5 results
|